Danville, VA

6:43 AM EST on February 24, 2018 (GMT -0500)
Danville Regional

Weather History for KDAN - July, 2013

Change the Weather History Date:

Saturday, July 6, 2013

  Actual Average Record
Temperature  
Mean Temperature 79 °F 78 °F  
Max Temperature 88 °F 88 °F 102 °F (1990)
Min Temperature 69 °F 68 °F 54 °F (2014)
Degree Days  
Heating Degree Days 0 0  
Month to date heating degree days 0 0  
Since 1 June heating degree days 0 3  
Since 1 July heating degree days 0 0  
Cooling Degree Days 14 13  
Month to date cooling degree days 80 78  
Year to date cooling degree days 553 519  
Since 1 June cooling degree days 391 375  
Growing Degree Days 28 (Base 50)    
Moisture  
Dew Point 70 °F    
Average Humidity 76    
Maximum Humidity 97    
Minimum Humidity 55    
Precipitation  
Precipitation 0.10 in 0.14 in 1.42 in (1989)
Month to date precipitation 1.53 0.78  
Year to date precipitation 27.68 22.51  
Snow  
Snow 0.00 in - - ()
Month to date snowfall 0.0  
Since 1 June snowfall 0.0  
Since 1 July snowfall 0.0  
Snow Depth 0.00 in    
Sea Level Pressure  
Sea Level Pressure 30.21 in    
Wind  
Wind Speed 3 mph (SW)    
Max Wind Speed 14 mph    
Max Gust Speed 18 mph    
Visibility 9 miles    
Events Fog , Rain    
T = Trace of Precipitation, MM = Missing Value Source: NWS Daily Summary

Daily Weather History Graph

Daily Weather History Graph

Search for Another Location

Airport or City:

Trip Planner

Search our weather history database for the weather conditions in past years. The results will help you decide how hot, cold, wet, or windy it might be!

Date:

Astronomy

Jul. 06, 2013 Rise Set
Actual Time 6:05 AM EDT 8:38 PM EDT
Civil Twilight 5:35 AM EDT 9:09 PM EDT
Nautical Twilight 4:57 AM EDT 9:46 PM EDT
Astronomical Twilight 4:15 AM EDT 10:28 PM EDT
Moon 4:48 AM EDT (7/6) 7:20 PM EDT (7/6)
Length of Visible Light 15h 34m
Length of Day
14h 33m
Waning Crescent, 2% of the Moon is Illuminated
Jul 6
Waning Crescent
Jul 8
New
Jul 15
First Quarter
Jul 22
Full
Jul 29
Last Quarter

Hourly Weather History & Observations

Time (EDT) Temp. Heat Index Dew Point Humidity Pressure Visibility Wind Dir Wind Speed Gust Speed Precip Events Conditions
12:53 AM 72.0 °F - 69.1 °F 91% 30.19 in 10.0 mi Calm Calm - N/A   Clear
1:49 AM 71.6 °F - 69.8 °F 94% 30.23 in 10.0 mi SW 3.5 mph - N/A   Mostly Cloudy
1:53 AM 72.0 °F - 70.0 °F 93% 30.20 in 10.0 mi Calm Calm - N/A   Mostly Cloudy
2:27 AM 71.6 °F - 69.8 °F 94% 30.23 in 10.0 mi Calm Calm - N/A   Scattered Clouds
2:53 AM 71.1 °F - 69.1 °F 93% 30.19 in 10.0 mi Calm Calm - N/A   Clear
3:53 AM 70.0 °F - 68.0 °F 93% 30.19 in 10.0 mi Calm Calm - N/A   Clear
4:31 AM 69.8 °F - 66.2 °F 88% 30.22 in 10.0 mi Calm Calm - N/A   Scattered Clouds
4:40 AM 69.8 °F - 68.0 °F 94% 30.22 in 10.0 mi Calm Calm - N/A   Mostly Cloudy
4:53 AM 70.0 °F - 68.0 °F 93% 30.19 in 10.0 mi Calm Calm - N/A   Overcast
5:23 AM 71.6 °F - 68.0 °F 88% 30.23 in 10.0 mi Calm Calm - N/A   Partly Cloudy
5:53 AM 70.0 °F - 68.0 °F 93% 30.21 in 9.0 mi Calm Calm - N/A   Clear
6:17 AM 69.8 °F - 66.2 °F 88% 30.25 in 1.8 mi Calm Calm - N/A   Partly Cloudy
6:25 AM 69.8 °F - 68.0 °F 94% 30.25 in 0.5 mi Calm Calm - N/A Fog Fog
6:33 AM 71.6 °F - 69.8 °F 94% 30.25 in 2.5 mi Calm Calm - N/A   Mostly Cloudy
6:40 AM 71.6 °F - 69.8 °F 94% 30.25 in 8.0 mi Calm Calm - N/A   Mostly Cloudy
6:53 AM 71.1 °F - 69.1 °F 93% 30.22 in 10.0 mi Calm Calm - N/A   Mostly Cloudy
7:03 AM 71.6 °F - 69.8 °F 94% 30.26 in 10.0 mi Calm Calm - N/A   Mostly Cloudy
7:13 AM 71.6 °F - 69.8 °F 94% 30.26 in 10.0 mi Calm Calm - N/A   Overcast
7:53 AM 72.0 °F - 70.0 °F 93% 30.23 in 10.0 mi Variable 3.5 mph - N/A   Overcast
8:18 AM 73.4 °F - 71.6 °F 94% 30.27 in 10.0 mi SSW 3.5 mph - N/A   Overcast
8:26 AM 73.4 °F - 71.6 °F 94% 30.27 in 10.0 mi SSW 4.6 mph - N/A   Overcast
8:43 AM 75.2 °F - 71.6 °F 89% 30.27 in 10.0 mi SW 6.9 mph - N/A   Mostly Cloudy
8:53 AM 75.9 °F - 71.1 °F 85% 30.24 in 10.0 mi SSW 4.6 mph - N/A   Mostly Cloudy
9:03 AM 75.2 °F - 69.8 °F 83% 30.27 in 10.0 mi SSW 8.1 mph - N/A   Overcast
9:37 AM 75.2 °F - 71.6 °F 89% 30.27 in 10.0 mi WSW 5.8 mph - N/A   Overcast
9:53 AM 78.1 °F - 71.1 °F 79% 30.24 in 10.0 mi WSW 5.8 mph - N/A   Mostly Cloudy
10:07 AM 77.0 °F - 69.8 °F 78% 30.27 in 10.0 mi SW 4.6 mph - N/A   Scattered Clouds
10:26 AM 78.8 °F - 71.6 °F 78% 30.27 in 10.0 mi WSW 4.6 mph - N/A   Mostly Cloudy
10:43 AM 80.6 °F 83.9 °F 69.8 °F 70% 30.27 in 10.0 mi SSW 4.6 mph - N/A   Scattered Clouds
10:53 AM 81.0 °F 84.9 °F 71.1 °F 72% 30.24 in 10.0 mi Variable 4.6 mph - N/A   Partly Cloudy
11:53 AM 82.9 °F 86.5 °F 69.1 °F 63% 30.23 in 10.0 mi WSW 8.1 mph - N/A   Clear
12:53 PM 84.0 °F 88.4 °F 70.0 °F 63% 30.22 in 10.0 mi SW 6.9 mph - N/A   Partly Cloudy
1:53 PM 84.9 °F 89.4 °F 70.0 °F 61% 30.19 in 10.0 mi SW 6.9 mph - N/A   Scattered Clouds
2:53 PM 87.1 °F 92.8 °F 71.1 °F 59% 30.16 in 10.0 mi SSW 5.8 mph - N/A   Scattered Clouds
3:53 PM 87.1 °F 92.0 °F 70.0 °F 57% 30.14 in 10.0 mi SSW 5.8 mph - N/A   Scattered Clouds
4:53 PM 88.0 °F 92.9 °F 70.0 °F 55% 30.12 in 10.0 mi South 4.6 mph - N/A   Scattered Clouds
5:53 PM 84.0 °F 89.6 °F 72.0 °F 67% 30.12 in 10.0 mi SSE 3.5 mph - N/A   Mostly Cloudy
6:53 PM 82.9 °F 88.0 °F 72.0 °F 69% 30.11 in 10.0 mi Variable 3.5 mph - N/A   Scattered Clouds
7:53 PM 82.0 °F 87.4 °F 73.0 °F 74% 30.12 in 10.0 mi Calm Calm - N/A   Mostly Cloudy
8:53 PM 81.0 °F 85.2 °F 72.0 °F 74% 30.12 in 10.0 mi Variable 3.5 mph - N/A   Overcast
9:40 PM 77.0 °F - 73.4 °F 89% 30.19 in 1.8 mi Variable 3.5 mph - 0.09 in Rain Heavy Rain
9:47 PM 77.0 °F - 73.4 °F 89% 30.19 in 3.0 mi Calm Calm - 0.10 in Rain Light Rain
9:53 PM 77.0 °F - 73.0 °F 88% 30.16 in 10.0 mi Calm Calm - 0.10 in   Mostly Cloudy
10:53 PM 75.9 °F - 73.0 °F 91% 30.17 in 10.0 mi Calm Calm - 0.00 in   Overcast
11:53 PM 75.9 °F - 73.0 °F 91% 30.17 in 10.0 mi Calm Calm - N/A   Overcast